EN

Hourly Weather Bom Despacho

Today, 16 April, Friday

Time Temperature Precipitation Wind Pressure Humidity
00:00 +17°C° 0 mm 2 mps 698 mmHg 78%
01:00 +17°C° 0 mm 2 mps 698 mmHg 80%
02:00 +16°C° 0 mm 1 mps 698 mmHg 82%
03:00 +15°C° 0 mm 1 mps 697 mmHg 83%
04:00 +15°C° 0 mm 1 mps 698 mmHg 85%
05:00 +15°C° 0 mm 1 mps 698 mmHg 86%
06:00 +14°C° 0 mm 1 mps 698 mmHg 87%
07:00 +18°C° 0 mm 1 mps 699 mmHg 79%
08:00 +20°C° 0 mm 1 mps 699 mmHg 71%
09:00 +21°C° 0 mm 2 mps 700 mmHg 62%
10:00 +24°C° 0 mm 2 mps 700 mmHg 57%
11:00 +26°C° 0 mm 1 mps 700 mmHg 52%
12:00 +27°C° 0 mm 1 mps 699 mmHg 47%
13:00 +28°C° 0 mm 1 mps 699 mmHg 46%
14:00 +28°C° 0 mm 1 mps 698 mmHg 45%
15:00 +28°C° 0 mm 1 mps 698 mmHg 44%
16:00 +26°C° 0 mm 1 mps 698 mmHg 50%
17:00 +25°C° 0 mm 1 mps 697 mmHg 57%
18:00 +23°C° 0 mm 1 mps 697 mmHg 63%
19:00 +22°C° 0 mm 1 mps 697 mmHg 64%
20:00 +20°C° 0 mm 2 mps 698 mmHg 65%
21:00 +20°C° 0 mm 2 mps 698 mmHg 66%
22:00 +19°C° 0 mm 2 mps 698 mmHg 69%
23:00 +18°C° 0 mm 2 mps 698 mmHg 72%

Tomorrow, 17 April, Saturday

Time Temperature Precipitation Wind Pressure Humidity
00:00 +17°C° 0 mm 2 mps 698 mmHg 75%
01:00 +18°C° 0 mm 1 mps 697 mmHg 78%
02:00 +16°C° 0 mm 1 mps 697 mmHg 80%
03:00 +16°C° 0 mm 1 mps 697 mmHg 83%
04:00 +15°C° 0 mm 1 mps 697 mmHg 84%
05:00 +15°C° 0 mm 1 mps 697 mmHg 85%
06:00 +15°C° 0 mm 1 mps 698 mmHg 87%
07:00 +18°C° 0 mm 1 mps 698 mmHg 78%
08:00 +21°C° 0 mm 1 mps 699 mmHg 69%
09:00 +23°C° 0 mm 1 mps 700 mmHg 60%
10:00 +25°C° 0 mm 1 mps 699 mmHg 54%
11:00 +27°C° 0 mm 1 mps 699 mmHg 49%
12:00 +28°C° 0 mm 1 mps 699 mmHg 43%
13:00 +29°C° 0 mm 1 mps 698 mmHg 43%
14:00 +27°C° 0 mm 0 mps 698 mmHg 42%
15:00 +27°C° 0 mm 0 mps 697 mmHg 41%
16:00 +27°C° 0 mm 1 mps 697 mmHg 47%
17:00 +25°C° 0 mm 1 mps 697 mmHg 53%
18:00 +23°C° 0 mm 1 mps 697 mmHg 59%
19:00 +22°C° 0 mm 1 mps 697 mmHg 60%
20:00 +21°C° 0 mm 2 mps 697 mmHg 62%
21:00 +20°C° 0 mm 2 mps 697 mmHg 63%
22:00 +19°C° 0 mm 2 mps 697 mmHg 65%
23:00 +19°C° 0 mm 2 mps 697 mmHg 67%

Day after tomorrow, 18 April, Sunday

Time Temperature Precipitation Wind Pressure Humidity
00:00 +19°C° 0 mm 1 mps 697 mmHg 70%
01:00 +19°C° 0 mm 1 mps 697 mmHg 70%
02:00 +19°C° 0 mm 1 mps 697 mmHg 70%
03:00 +17°C° 0 mm 0 mps 696 mmHg 70%
04:00 +16°C° 0 mm 0 mps 697 mmHg 71%
05:00 +16°C° 0 mm 0 mps 697 mmHg 73%
06:00 +16°C° 0 mm 0 mps 697 mmHg 74%
07:00 +18°C° 0 mm 0 mps 698 mmHg 68%
08:00 +20°C° 0 mm 0 mps 698 mmHg 63%
09:00 +22°C° 0 mm 0 mps 699 mmHg 57%
10:00 +26°C° 0 mm 1 mps 699 mmHg 52%
11:00 +27°C° 0 mm 1 mps 699 mmHg 48%
12:00 +29°C° 0 mm 1 mps 698 mmHg 43%
13:00 +29°C° 0 mm 1 mps 698 mmHg 42%
14:00 +29°C° 0 mm 1 mps 697 mmHg 42%
15:00 +30°C° 0 mm 1 mps 696 mmHg 42%
16:00 +28°C° 0 mm 1 mps 696 mmHg 47%
17:00 +26°C° 0 mm 1 mps 696 mmHg 53%
18:00 +24°C° 0 mm 1 mps 696 mmHg 59%
19:00 +23°C° 0.2 mm 2 mps 696 mmHg 67%
20:00 +21°C° 0.2 mm 2 mps 696 mmHg 76%
21:00 +19°C° 0.2 mm 2 mps 697 mmHg 84%
22:00 +19°C° 0.5 mm 2 mps 697 mmHg 87%
23:00 +20°C° 0.5 mm 1 mps 697 mmHg 89%

19 April, Monday

Time Temperature Precipitation Wind Pressure Humidity
00:00 +19°C° 0.5 mm 1 mps 697 mmHg 92%
01:00 +20°C° 0.2 mm 1 mps 696 mmHg 92%
02:00 +18°C° 0.2 mm 0 mps 696 mmHg 92%
03:00 +18°C° 0.2 mm 0 mps 696 mmHg 91%
04:00 +20°C° 0.2 mm 1 mps 696 mmHg 93%
05:00 +19°C° 0.2 mm 1 mps 697 mmHg 94%
06:00 +19°C° 0.2 mm 1 mps 697 mmHg 96%
07:00 +20°C° 0.1 mm 1 mps 697 mmHg 92%
08:00 +21°C° 0.1 mm 1 mps 698 mmHg 89%
09:00 +21°C° 0.1 mm 1 mps 698 mmHg 86%
10:00 +21°C° 0 mm 2 mps 698 mmHg 80%
11:00 +23°C° 0 mm 2 mps 698 mmHg 75%
12:00 +24°C° 0 mm 2 mps 698 mmHg 69%
13:00 +25°C° 0.2 mm 2 mps 697 mmHg 68%
14:00 +25°C° 0.2 mm 2 mps 697 mmHg 67%
15:00 +26°C° 0.2 mm 2 mps 696 mmHg 66%
16:00 +24°C° 0.4 mm 1 mps 696 mmHg 71%
17:00 +23°C° 0.4 mm 1 mps 696 mmHg 77%
18:00 +22°C° 0.4 mm 1 mps 696 mmHg 82%
19:00 +22°C° 0.1 mm 1 mps 696 mmHg 84%
20:00 +21°C° 0.1 mm 1 mps 696 mmHg 86%
21:00 +21°C° 0.1 mm 1 mps 697 mmHg 88%
22:00 +20°C° 0.1 mm 1 mps 697 mmHg 88%
23:00 +20°C° 0.1 mm 1 mps 697 mmHg 89%

20 April, Tuesday

Time Temperature Precipitation Wind Pressure Humidity
00:00 +18°C° 0.1 mm 0 mps 697 mmHg 90%
01:00 +17°C° 0.4 mm 0 mps 697 mmHg 91%
02:00 +17°C° 0.4 mm 0 mps 696 mmHg 93%
03:00 +17°C° 0.4 mm 0 mps 696 mmHg 94%
04:00 +17°C° 0 mm 0 mps 696 mmHg 94%
05:00 +16°C° 0 mm 0 mps 696 mmHg 95%
06:00 +16°C° 0 mm 0 mps 697 mmHg 95%
07:00 +18°C° 0 mm 0 mps 697 mmHg 91%
08:00 +19°C° 0 mm 0 mps 698 mmHg 86%
09:00 +21°C° 0 mm 0 mps 699 mmHg 82%
10:00 +23°C° 0 mm 0 mps 698 mmHg 73%
11:00 +25°C° 0 mm 0 mps 698 mmHg 65%
12:00 +27°C° 0 mm 0 mps 698 mmHg 56%
13:00 +27°C° 0.1 mm 0 mps 698 mmHg 54%
14:00 +29°C° 0.1 mm 1 mps 697 mmHg 52%
15:00 +29°C° 0.1 mm 1 mps 696 mmHg 50%
16:00 +27°C° 0.2 mm 1 mps 696 mmHg 56%
17:00 +25°C° 0.2 mm 1 mps 696 mmHg 63%
18:00 +22°C° 0.2 mm 0 mps 696 mmHg 69%
19:00 +23°C° 0.1 mm 1 mps 696 mmHg 72%
20:00 +22°C° 0.1 mm 1 mps 696 mmHg 74%
21:00 +22°C° 0.1 mm 1 mps 697 mmHg 77%
22:00 +21°C° 0 mm 1 mps 697 mmHg 78%
23:00 +21°C° 0 mm 1 mps 697 mmHg 79%

21 April, Wednesday

Time Temperature Precipitation Wind Pressure Humidity
00:00 +18°C° 0 mm 0 mps 697 mmHg 81%
01:00 +20°C° 0 mm 1 mps 697 mmHg 81%
02:00 +19°C° 0 mm 1 mps 696 mmHg 82%
03:00 +19°C° 0 mm 1 mps 696 mmHg 83%
04:00 +19°C° 0 mm 1 mps 696 mmHg 84%
05:00 +19°C° 0 mm 1 mps 696 mmHg 85%
06:00 +18°C° 0 mm 1 mps 696 mmHg 86%
07:00 +20°C° 0 mm 1 mps 697 mmHg 81%
08:00 +20°C° 0 mm 0 mps 698 mmHg 76%
09:00 +21°C° 0 mm 0 mps 698 mmHg 71%
10:00 +23°C° 0 mm 0 mps 698 mmHg 66%
11:00 +26°C° 0 mm 1 mps 698 mmHg 61%
12:00 +28°C° 0 mm 1 mps 698 mmHg 56%
13:00 +28°C° 0.2 mm 1 mps 697 mmHg 55%
14:00 +28°C° 0.2 mm 1 mps 697 mmHg 53%
15:00 +28°C° 0.2 mm 1 mps 696 mmHg 51%
16:00 +27°C° 0.1 mm 1 mps 696 mmHg 58%
17:00 +25°C° 0.1 mm 1 mps 696 mmHg 64%
18:00 +23°C° 0.1 mm 1 mps 696 mmHg 70%
19:00 +23°C° 0.2 mm 1 mps 696 mmHg 75%
20:00 +22°C° 0.2 mm 1 mps 697 mmHg 79%
21:00 +21°C° 0.2 mm 1 mps 697 mmHg 84%
22:00 +20°C° 0 mm 1 mps 697 mmHg 86%
23:00 +20°C° 0 mm 1 mps 697 mmHg 88%
Show more

We Need Your Consent

Meteoprog and our Service Providers may store and access personal data such as cookies, device identifiers or other similar technologies on your device and process such data to personalise content and ads, as well as provide social media features and to analyse the traffic.

  • Store and/or access information on your device

    Cookies, device identifiers or other information can be stored or accessed on your device for the purposes indicated above.

  • Personalised ads and content, ad and content measurement, audience insights, and products development

    Ads and content can be personalised based on a profile. More data can be added to better personalise ads and content. Ad and content performance can be measured. Insights about the audience who saw the ads and content can be derived. Such data can be used to develop or improve user’s experience, systems and software.

By clicking ‘I Agree’ you will allow the use of indicated cookies, device identifiers, web beacons or other similar technologies. Your settings can be changed in the browser on your device.

For certain purposes, legitimate interests may be relied on, rather than consent. You can read more about this in our Privacy and Cookie Policy.